This is the latest recevied weather packets stored in our database for station/object KO6MEX-13. If no packets are shown the sender has not sent any weather packets the latest 10 day(s).
| Time | Temp. | Humidity | Pressure | Rain* | Wind** | Luminosity | Snow |
|---|---|---|---|---|---|---|---|
| 1777738865 | 13.33° C | 88% | 1018.4 hPa | 0 mm | - | 118 W/m² | - |
| 1777738562 | 12.78° C | 89% | 1018.3 hPa | 0 mm | - | 95 W/m² | - |
| 1777738260 | 12.78° C | 88% | 1018.5 hPa | 0 mm | - | 107 W/m² | - |
| 1777737958 | 13.33° C | 88% | 1018.5 hPa | 0 mm | - | 104 W/m² | - |
| 1777737655 | 13.33° C | 88% | 1018.4 hPa | 0 mm | - | 92 W/m² | - |
| 1777737354 | 12.78° C | 90% | 1018.5 hPa | 0 mm | - | 84 W/m² | - |
| 1777737050 | 13.33° C | 89% | 1018.4 hPa | 0 mm | - | 96 W/m² | - |
| 1777736747 | 13.33° C | 89% | 1018.2 hPa | 0 mm | - | 95 W/m² | - |
| 1777736118 | 12.78° C | 89% | 1018.4 hPa | 0 mm | - | 80 W/m² | - |
| 1777735816 | 12.78° C | 89% | 1018.3 hPa | 0 mm | - | 71 W/m² | - |
| 1777735513 | 12.78° C | 89% | 1018.2 hPa | 0 mm | - | 59 W/m² | - |
| 1777735210 | 12.78° C | 90% | 1018.1 hPa | 0 mm | - | 59 W/m² | - |
| 1777734907 | 12.78° C | 90% | 1018.2 hPa | 0 mm | - | 68 W/m² | - |
| 1777734604 | 12.78° C | 91% | 1018.1 hPa | 0 mm | - | 68 W/m² | - |
| 1777734302 | 12.78° C | 90% | 1018.3 hPa | 0 mm | - | 64 W/m² | - |
| 1777733997 | 12.78° C | 91% | 1018.2 hPa | 0 mm | - | 54 W/m² | - |
| 1777733694 | 12.78° C | 91% | 1018.2 hPa | 0 mm | - | 66 W/m² | - |
| 1777733391 | 12.22° C | 92% | 1017.9 hPa | 0 mm | - | 49 W/m² | - |
| 1777733088 | 12.22° C | 93% | 1018 hPa | 0 mm | - | 47 W/m² | - |
| 1777732783 | 12.22° C | 93% | 1018 hPa | 0 mm | - | 53 W/m² | - |
| 1777732481 | 12.22° C | 93% | 1017.9 hPa | 0 mm | - | 33 W/m² | - |
| 1777732178 | 12.22° C | 93% | 1017.9 hPa | 0 mm | - | 24 W/m² | - |
| 1777731875 | 12.22° C | 94% | 1017.8 hPa | 0 mm | - | 27 W/m² | - |
| 1777731572 | 12.22° C | 94% | 1017.8 hPa | 0 mm | - | 23 W/m² | - |
| 1777731270 | 12.22° C | 94% | 1017.8 hPa | 0 mm | - | 19 W/m² | - |
* Rain latest hour (hover to see other rain measurements)
** Current wind speed in m/s (hover to see current wind gust speed)